Tracking 20092 objects as of 14-Dec-2019
HD Live streaming from Space Station
objects crossing your sky now

COSMOS 2251 DEB

Track COSMOS 2251 DEB now!
10-day predictions


NORAD ID: 34323
Int'l Code: 1993-036NV
Perigee: 684.5 km
Apogee: 839.6 km
Inclination: 74.0 °
Period: 99.9 minutes
Semi major axis: 7133 km
RCS: 0.033 m2 (small)
Launch date: June 16, 1993
Source: Commonwealth of Independent States (former USSR) (CIS)
Launch site: PLESETSK MISSILE AND SPACE COMPLEX (PKMTR)

Note: This is SATELLITE DEBRIS
aabbcc
Your satellite tracking list
Your tracking list is empty




NASA's NSSDC Master Catalog

Two Line Element Set (TLE):
1 34323U 93036NV  19346.70089208 +.00000577 +00000-0 +17510-3 0  9999
2 34323 073.9680 295.6042 0108752 125.8647 304.5212 14.41084895566776
Source of the keplerian elements: AFSPC